This is the latest recevied weather packets stored in our database for station/object KF6YUA. If no packets are shown the sender has not sent any weather packets the latest 10 day(s).
| Time | Temp. | Humidity | Pressure | Rain* | Wind** | Luminosity | Snow |
|---|---|---|---|---|---|---|---|
| 1777954177 | 11.11° C | 99% | 1017.8 hPa | 0 mm | - | 0 W/m² | - |
| 1777953875 | 11.11° C | 99% | 1017.7 hPa | 0 mm | - | 0 W/m² | - |
| 1777953571 | 11.11° C | 99% | 1017.7 hPa | 0 mm | - | 0 W/m² | - |
| 1777953267 | 11.11° C | 99% | 1017.6 hPa | 0 mm | - | 0 W/m² | - |
| 1777952965 | 11.11° C | 99% | 1017.4 hPa | 0 mm | - | 0 W/m² | - |
| 1777952661 | 11.11° C | 99% | 1017 hPa | 0.51 mm | - | 0 W/m² | - |
| 1777952358 | 11.11° C | 99% | 1017 hPa | 0.51 mm | - | 0 W/m² | - |
| 1777952055 | 11.67° C | 99% | 1016.9 hPa | 0 mm | - | 0 W/m² | - |
| 1777951753 | 11.11° C | 99% | 1016.6 hPa | 0.51 mm | - | 0 W/m² | - |
| 1777951450 | 11.11° C | 99% | 1016.6 hPa | 0.51 mm | - | 0 W/m² | - |
| 1777951146 | 11.11° C | 99% | 1015.9 hPa | 0 mm | - | 0 W/m² | - |
| 1777950843 | 11.11° C | 99% | 1016.1 hPa | 0 mm | - | 0 W/m² | - |
| 1777950540 | 11.11° C | 99% | 1016.2 hPa | 0 mm | - | 0 W/m² | - |
| 1777950236 | 11.11° C | 98% | 1016.3 hPa | 0 mm | - | 0 W/m² | - |
| 1777949931 | 11.67° C | 98% | 1016.4 hPa | 0 mm | - | 0 W/m² | - |
| 1777949630 | 11.11° C | 98% | 1016.7 hPa | 0 mm | - | 0 W/m² | - |
| 1777949328 | 11.67° C | 98% | 1016.9 hPa | 0.51 mm | - | 0 W/m² | - |
| 1777949026 | 11.67° C | 98% | 1017.1 hPa | 0.51 mm | - | 2 W/m² | - |
| 1777948722 | 11.67° C | 98% | 1017.1 hPa | 1.27 mm | - | 4 W/m² | - |
| 1777948419 | 11.67° C | 98% | 1017.2 hPa | 2.29 mm | - | 0 W/m² | - |
| 1777948116 | 11.67° C | 98% | 1016.9 hPa | 3.05 mm | - | 0 W/m² | - |
| 1777947813 | 11.67° C | 98% | 1017 hPa | 3.05 mm | - | 5 W/m² | - |
| 1777947511 | 11.67° C | 98% | 1017.2 hPa | 3.05 mm | - | 5 W/m² | - |
| 1777947207 | 11.67° C | 98% | 1017.3 hPa | 1.78 mm | - | 5 W/m² | - |
| 1777946903 | 11.67° C | 98% | 1017.4 hPa | 2.29 mm | - | 7 W/m² | - |
* Rain latest hour (hover to see other rain measurements)
** Current wind speed in m/s (hover to see current wind gust speed)